This demonstration page uses our WeatherBlox Daily Observations layout. Learn more.

40.92945, -100.16068

Hourly Observations for July 3, 2015

Temp ( °F °C ) Dew Point ( °F °C ) Humidity (%) Winds ( mph kmh ) Pressure ( in mb ) Visibility ( mi km ) Precip ( " mm )
12:15 am 00:15 Clear 65 18.6 63 17 90 90 E 3 6 29.97 1015 10 16.0934 N/A
12:35 am 00:35 Clear 65 18.2 62 16.8 92 92 Calm 29.97 1015 7 11.26538 N/A
12:55 am 00:55 Clear 64 18 62 16.7 92 92 Calm 29.97 1015 7 11.26538 N/A
1:15 am 01:15 Clear with Mist and Fog 64 17.5 62 16.5 94 94 Calm 29.97 1015 5 8.0467 N/A
1:35 am 01:35 Clear with Mist and Fog 63 17 61 16.1 94 94 Calm 29.97 1015 4 6.43736 N/A
1:55 am 01:55 Clear with Mist and Fog 62 16.5 60 15.7 95 95 Calm 29.97 1015 4 6.43736 N/A
2:15 am 02:15 Clear with Mist and Fog 61 16.2 60 15.5 96 96 N 3 6 30 1016 3 4.82802 N/A
2:35 am 02:35 Clear with Mist and Fog 61 16 60 15.3 96 96 NNE 5 7 30 1016 2.5 4.02335 N/A
2:55 am 02:55 Clear with Mist and Fog 60 15.8 59 15.1 96 96 Calm 30 1016 2.5 4.02335 N/A
3:15 am 03:15 Clear with Mist and Fog 62 16.5 61 15.9 96 96 NNE 6 9 29.97 1015 2 3.21868 N/A
3:35 am 03:35 Mostly Cloudy with Mist and Fog 62 16.8 61 16.2 96 96 NE 5 7 29.97 1015 2.5 4.02335 N/A
3:55 am 03:55 Cloudy with Fog 63 17.3 62 16.7 96 96 NE 5 7 29.97 1015 0.25 0.402335 N/A
4:15 am 04:15 Cloudy with Fog 63 17.3 62 16.7 96 96 NE 3 6 29.97 1015 0.5 0.80467 N/A
4:35 am 04:35 Cloudy with Mist and Fog 64 17.5 63 17 97 97 NNE 6 9 29.97 1015 1.75 2.816345 N/A
4:55 am 04:55 Cloudy with Mist and Fog 63 17.3 62 16.8 97 97 NE 5 7 29.97 1015 1.25 2.011675 N/A
5:15 am 05:15 Cloudy with Fog 63 17.2 62 16.7 97 97 NE 6 9 29.97 1015 0.5 0.80467 N/A
5:35 am 05:35 Cloudy with Fog 63 17.2 62 16.7 97 97 NE 7 11 29.97 1015 0.25 0.402335 N/A
5:55 am 05:55 Cloudy with Fog 63 17 62 16.5 97 97 Calm 29.97 1015 0.5 0.80467 N/A
6:15 am 06:15 Cloudy with Fog 63 17.2 62 16.8 98 98 NNE 3 6 29.97 1015 0.5 0.80467 N/A
6:35 am 06:35 Cloudy with Fog 63 17.3 63 17 98 98 Calm 29.97 1015 0.25 0.402335 N/A
6:55 am 06:55 Cloudy with Fog 63 17.3 63 17 98 98 Calm 29.97 1015 0.5 0.80467 0 0
7:15 am 07:15 Cloudy with Mist and Fog 64 17.6 63 17.2 98 98 Calm 29.97 1015 0.75 1.207005 N/A
7:35 am 07:35 Cloudy with Mist and Fog 64 17.9 64 17.5 98 98 NNE 3 6 29.97 1015 2 3.21868 N/A
7:55 am 07:55 Cloudy with Mist and Fog 64 18 64 17.5 97 97 N 3 6 29.97 1015 1.75 2.816345 N/A
8:15 am 08:15 Cloudy with Mist and Fog 64 18 64 17.5 97 97 NNE 5 7 29.97 1015 2 3.21868 N/A
8:35 am 08:35 Cloudy with Mist and Fog 65 18.1 64 17.6 97 97 N 5 7 29.97 1015 3 4.82802 N/A
8:55 am 08:55 Cloudy with Mist and Fog 65 18.2 64 17.8 98 98 N 3 6 29.97 1015 5 8.0467 N/A
9:15 am 09:15 Cloudy 65 18.4 64 17.9 97 97 NNE 5 7 30 1016 7 11.26538 N/A
9:35 am 09:35 Cloudy 65 18.5 64 18 97 97 NNE 5 7 30 1016 7 11.26538 N/A
9:55 am 09:55 Cloudy 65 18.6 64 18 96 96 Calm 30 1016 7 11.26538 N/A
10:15 am 10:15 Cloudy 66 19 64 18 94 94 ENE 3 6 30 1016 7 11.26538 N/A
10:35 am 10:35 Cloudy 66 19 64 17.7 92 92 Calm 30 1016 7 11.26538 N/A
10:55 am 10:55 Cloudy 67 19.5 64 17.7 89 89 Calm 30 1016 7 11.26538 N/A
11:15 am 11:15 Cloudy 69 20.7 65 18.5 87 87 Calm 29.97 1015 10 16.0934 N/A
11:35 am 11:35 Cloudy 71 21.5 64 17.9 80 80 Calm 29.97 1015 10 16.0934 N/A
11:55 am 11:55 Mostly Cloudy 72 22 64 17.7 77 77 Calm 29.94 1014 10 16.0934 N/A
12:15 pm 12:15 Mostly Cloudy 73 22.5 65 18.1 76 76 SSW 3 6 29.97 1015 7 11.26538 N/A
12:35 pm 12:35 Cloudy 73 22.8 64 17.9 74 74 Calm 29.97 1015 7 11.26538 N/A
12:55 pm 12:55 Mostly Cloudy 74 23.6 64 17.6 69 69 NNW 3 6 29.91 1013 7 11.26538 N/A
1:15 pm 13:15 Sunny 75 24 63 17.3 66 66 NNW 3 6 29.91 1013 7 11.26538 N/A
1:35 pm 13:35 Sunny 77 24.8 64 17.6 64 64 NW 3 6 29.91 1013 7 11.26538 N/A
1:55 pm 13:55 Sunny 77 25 63 17.4 63 63 Calm 29.91 1013 7 11.26538 N/A
2:15 pm 14:15 Partly Cloudy 78 25.7 63 17.4 60 60 Calm 29.91 1013 7 11.26538 N/A
2:35 pm 14:35 Partly Cloudy 79 26 63 17.2 58 58 N 3 6 29.91 1013 7 11.26538 N/A
2:55 pm 14:55 Sunny 79 26.2 62 16.9 57 57 N 5 7 29.91 1013 7 11.26538 N/A
3:15 pm 15:15 Sunny 81 27.2 62 16.8 53 53 NNE 5 7 29.91 1013 7 11.26538 N/A
3:35 pm 15:35 Partly Cloudy 82 27.5 62 16.4 51 51 ENE 5 7 29.88 1012 10 16.0934 N/A
3:55 pm 15:55 Partly Cloudy 81 27 61 16.1 51 51 NW 3 6 29.91 1013 10 16.0934 N/A
4:15 pm 16:15 Partly Cloudy 81 27.3 60 15.6 49 49 Calm 29.85 1011 10 16.0934 N/A
4:35 pm 16:35 Partly Cloudy 83 28.1 61 15.9 47 47 E 5 7 29.85 1011 10 16.0934 N/A
4:55 pm 16:55 Sunny 82 27.7 59 14.9 46 46 Calm 29.85 1011 10 16.0934 N/A
5:15 pm 17:15 Sunny 82 27.7 59 14.8 45 45 Calm 29.85 1011 10 16.0934 N/A
5:35 pm 17:35 Sunny 82 28 60 15.3 46 46 N 5 7 29.85 1011 10 16.0934 N/A
5:55 pm 17:55 Sunny 82 27.8 59 15.1 46 46 Calm 29.85 1011 10 16.0934 N/A
6:15 pm 18:15 Sunny 82 27.6 59 15.1 46 46 ENE 5 7 29.85 1011 10 16.0934 N/A
6:35 pm 18:35 Sunny 82 27.6 59 15 46 46 ENE 3 6 29.83 1010 10 16.0934 N/A
6:55 pm 18:55 Sunny 82 27.5 60 15.5 48 48 ENE 6 9 29.83 1010 10 16.0934 N/A
7:15 pm 19:15 Sunny 81 27 63 17.2 55 55 ESE 9 15 29.83 1010 10 16.0934 N/A
7:35 pm 19:35 Sunny 80 26.6 63 17.3 57 57 SE 9 15 29.83 1010 10 16.0934 N/A
7:55 pm 19:55 Sunny 79 25.9 64 17.5 60 60 SE 9 15 29.85 1011 10 16.0934 N/A
8:15 pm 20:15 Sunny 77 25.2 64 17.5 62 62 SE 8 13 29.85 1011 10 16.0934 N/A
8:35 pm 20:35 Sunny 76 24.5 64 17.5 65 65 SE 9 15 29.88 1012 10 16.0934 N/A
8:55 pm 20:55 Sunny 75 23.8 64 17.7 69 69 SE 8 13 29.88 1012 10 16.0934 N/A
9:15 pm 21:15 Clear 73 22.5 64 18 76 76 SSE 8 13 29.91 1013 10 16.0934 N/A
9:35 pm 21:35 Clear 71 21.8 64 18 79 79 SSE 8 13 29.91 1013 10 16.0934 N/A
9:55 pm 21:55 Clear 71 21.5 64 18 81 81 SSE 8 13 29.91 1013 10 16.0934 N/A
10:15 pm 22:15 Clear 70 21 64 17.6 81 81 SSE 7 11 29.91 1013 10 16.0934 N/A
10:35 pm 22:35 Clear 69 20.5 63 17.2 81 81 SSE 7 11 29.94 1014 10 16.0934 N/A
10:55 pm 22:55 Clear 68 20.1 64 17.5 85 85 SSE 7 11 29.97 1015 10 16.0934 N/A
11:15 pm 23:15 Clear 67 19.5 63 17 86 86 SSE 6 9 29.97 1015 10 16.0934 N/A
11:35 pm 23:35 Clear 67 19.3 63 17 87 87 SSE 5 7 29.97 1015 10 16.0934 N/A
11:55 pm 23:55 Clear 66 19 62 16.8 87 87 SSE 8 13 29.97 1015 10 16.0934 N/A

Powered by AerisWeather